Location: Elstree
(51.6403°N, 0.2969°W)
Time: 21:43:44
(UTC+00:00)

Cosmos 1000 Rocket - Pass Details

Date: 03 March 2021
Orbit: 954 x 991 km, 82.9° (Epoch: 15 April)

Event Time Altitude Azimuth Distance (km) Brightness Sun altitude
Rises 20:38:57 0° 349° (N) 3,689 8.0 -27.1°
Reaches altitude 10° 20:41:28 10° 350° (N) 2,742 7.3 -27.4°
Maximum altitude 20:47:46 89° 262° (W) 993 4.4 -28.3°
Enters shadow 20:48:33 71° 175° (S) 1,042 4.4 -28.4°
